TimeEST,TemperatureF,Dew PointF,Humidity,Sea Level PressureIn,VisibilityMPH,Wind Direction,Wind SpeedMPH,Gust SpeedMPH,PrecipitationIn,Events,Conditions,WindDirDegrees,DateUTC
12:15 AM,32.0,32.0,100,29.95,7.0,NNW,4.6,-,N/A,,Overcast,340,2013-03-01 05:15:00
12:35 AM,32.0,30.2,93,29.95,7.0,NNW,4.6,-,N/A,,Overcast,340,2013-03-01 05:35:00
12:55 AM,32.0,30.2,93,29.95,7.0,NNW,4.6,-,N/A,,Overcast,340,2013-03-01 05:55:00
1:15 AM,32.0,30.2,93,29.95,10.0,North,6.9,-,N/A,,Overcast,360,2013-03-01 06:15:00
1:35 AM,32.0,30.2,93,29.95,10.0,North,5.8,-,N/A,,Overcast,10,2013-03-01 06:35:00
2:15 AM,32.0,30.2,93,29.95,10.0,North,6.9,-,N/A,,Overcast,10,2013-03-01 07:15:00
2:35 AM,32.0,30.2,93,29.95,10.0,North,6.9,-,N/A,,Overcast,10,2013-03-01 07:35:00
2:55 AM,32.0,28.4,87,29.95,10.0,North,6.9,-,N/A,,Overcast,10,2013-03-01 07:55:00
3:15 AM,32.0,28.4,87,29.95,10.0,North,6.9,-,N/A,,Overcast,10,2013-03-01 08:15:00
3:35 AM,32.0,28.4,87,29.95,10.0,North,6.9,-,N/A,,Overcast,10,2013-03-01 08:35:00
4:15 AM,32.0,28.4,87,29.96,10.0,NNE,10.4,-,N/A,,Overcast,30,2013-03-01 09:15:00
4:35 AM,32.0,28.4,87,29.96,10.0,NNE,10.4,-,N/A,,Overcast,30,2013-03-01 09:35:00
5:15 AM,32.0,26.6,80,29.97,10.0,NNE,10.4,-,N/A,,Overcast,20,2013-03-01 10:15:00
5:35 AM,32.0,26.6,80,29.97,10.0,NNE,10.4,-,N/A,,Overcast,20,2013-03-01 10:35:00
5:55 AM,32.0,26.6,80,29.98,10.0,North,9.2,-,N/A,,Overcast,10,2013-03-01 10:55:00
6:15 AM,30.2,24.8,80,29.98,10.0,North,5.8,-,N/A,,Overcast,360,2013-03-01 11:15:00
6:35 AM,30.2,24.8,80,29.99,10.0,NNE,5.8,-,N/A,,Overcast,20,2013-03-01 11:35:00
7:15 AM,30.2,24.8,80,30.00,10.0,North,6.9,-,N/A,,Overcast,10,2013-03-01 12:15:00
7:35 AM,30.2,24.8,80,30.00,10.0,NNE,5.8,-,N/A,,Overcast,20,2013-03-01 12:35:00
8:15 AM,30.2,24.8,80,30.02,10.0,NNE,6.9,-,N/A,,Overcast,20,2013-03-01 13:15:00
8:35 AM,30.2,24.8,80,30.03,10.0,NNE,8.1,-,N/A,,Overcast,30,2013-03-01 13:35:00
9:15 AM,30.2,23.0,75,30.03,10.0,NE,6.9,-,N/A,,Overcast,40,2013-03-01 14:15:00
9:35 AM,30.2,23.0,75,30.03,10.0,NNE,9.2,-,N/A,,Overcast,30,2013-03-01 14:35:00
10:15 AM,32.0,24.8,75,30.04,10.0,North,9.2,-,N/A,,Overcast,10,2013-03-01 15:15:00
10:35 AM,32.0,23.0,69,30.04,10.0,NNE,10.4,-,N/A,,Overcast,20,2013-03-01 15:35:00
11:15 AM,32.0,23.0,69,30.05,10.0,NNE,8.1,-,N/A,,Overcast,30,2013-03-01 16:15:00
11:35 AM,32.0,23.0,69,30.05,10.0,NNE,9.2,-,N/A,,Overcast,30,2013-03-01 16:35:00
12:35 PM,32.0,21.2,64,30.05,10.0,NNE,9.2,-,N/A,,Overcast,20,2013-03-01 17:35:00
12:55 PM,32.0,23.0,69,30.05,10.0,NE,12.7,-,N/A,,Overcast,40,2013-03-01 17:55:00
1:15 PM,32.0,23.0,69,30.04,10.0,NNE,12.7,-,N/A,,Overcast,30,2013-03-01 18:15:00
1:35 PM,32.0,21.2,64,30.04,10.0,North,8.1,-,N/A,,Overcast,10,2013-03-01 18:35:00
1:55 PM,32.0,21.2,64,30.04,10.0,North,8.1,-,N/A,,Overcast,10,2013-03-01 18:55:00
2:35 PM,30.2,21.2,69,30.04,10.0,NNE,9.2,-,N/A,,Overcast,20,2013-03-01 19:35:00
2:55 PM,30.2,21.2,69,30.04,10.0,NNE,9.2,-,N/A,,Overcast,30,2013-03-01 19:55:00
3:15 PM,30.2,21.2,69,30.04,10.0,North,11.5,-,N/A,,Overcast,360,2013-03-01 20:15:00
3:35 PM,30.2,21.2,69,30.04,10.0,NNE,9.2,-,N/A,,Overcast,30,2013-03-01 20:35:00
3:55 PM,30.2,19.4,64,30.04,10.0,North,10.4,-,N/A,,Overcast,10,2013-03-01 20:55:00
4:15 PM,30.2,19.4,64,30.05,10.0,NE,6.9,-,N/A,,Overcast,40,2013-03-01 21:15:00
4:35 PM,30.2,19.4,64,30.05,10.0,NNE,8.1,-,N/A,,Overcast,30,2013-03-01 21:35:00
4:55 PM,30.2,19.4,64,30.05,10.0,NNE,8.1,-,N/A,,Overcast,20,2013-03-01 21:55:00
5:15 PM,28.4,19.4,69,30.06,10.0,NNE,6.9,-,N/A,,Overcast,20,2013-03-01 22:15:00
5:35 PM,28.4,19.4,69,30.06,10.0,North,6.9,-,N/A,,Overcast,10,2013-03-01 22:35:00
6:15 PM,28.4,19.4,69,30.06,10.0,North,6.9,-,N/A,,Overcast,360,2013-03-01 23:15:00
6:35 PM,28.4,19.4,69,30.07,10.0,North,10.4,-,N/A,,Overcast,10,2013-03-01 23:35:00
6:55 PM,28.4,19.4,69,30.08,10.0,NNE,6.9,-,N/A,,Overcast,30,2013-03-01 23:55:00
7:15 PM,28.4,19.4,69,30.08,10.0,NNE,4.6,-,N/A,,Overcast,30,2013-03-02 00:15:00
7:35 PM,28.4,19.4,69,30.09,10.0,North,9.2,-,N/A,,Overcast,10,2013-03-02 00:35:00
7:55 PM,28.4,19.4,69,30.09,10.0,North,9.2,-,N/A,,Overcast,360,2013-03-02 00:55:00
8:15 PM,26.6,19.4,74,30.09,10.0,NNE,10.4,-,N/A,,Overcast,30,2013-03-02 01:15:00
8:35 PM,26.6,19.4,74,30.10,10.0,NNE,8.1,-,N/A,,Overcast,20,2013-03-02 01:35:00
9:15 PM,26.6,19.4,74,30.11,10.0,North,4.6,-,N/A,,Overcast,10,2013-03-02 02:15:00
9:35 PM,26.6,19.4,74,30.11,10.0,North,8.1,-,N/A,,Overcast,10,2013-03-02 02:35:00
9:55 PM,26.6,19.4,74,30.11,10.0,NNE,8.1,-,N/A,,Overcast,30,2013-03-02 02:55:00
10:15 PM,26.6,19.4,74,30.11,10.0,North,6.9,-,N/A,,Overcast,360,2013-03-02 03:15:00
10:35 PM,26.6,19.4,74,30.11,10.0,NE,8.1,-,N/A,,Overcast,40,2013-03-02 03:35:00
10:55 PM,26.6,19.4,74,30.11,10.0,NE,8.1,-,N/A,,Overcast,40,2013-03-02 03:55:00
11:15 PM,26.6,19.4,74,30.10,10.0,North,5.8,-,N/A,,Overcast,360,2013-03-02 04:15:00
11:35 PM,26.6,19.4,74,30.09,10.0,North,6.9,-,N/A,,Overcast,360,2013-03-02 04:35:00
11:55 PM,26.6,19.4,74,30.09,10.0,NNE,5.8,-,N/A,,Overcast,20,2013-03-02 04:55:00